Grand Island, NE

4:59 AM CDT on September 25, 2017 (GMT -0500)
Central Nebraska Regional

Weather History for KGRI - November, 2012

Change the Weather History Date:

Tuesday, November 6, 2012

  Actual Average Record
Temperature  
Mean Temperature 47 °F 43 °F  
Max Temperature 60 °F 55 °F 82 °F (1980)
Min Temperature 33 °F 31 °F 1 °F (1991)
Degree Days  
Heating Degree Days 18 22  
Month to date heating degree days 116 124  
Since 1 July heating degree days 637 647  
Cooling Degree Days 0 0  
Month to date cooling degree days 0 0  
Year to date cooling degree days 1507 1034  
Moisture  
Dew Point 26 °F    
Average Humidity 49    
Maximum Humidity 79    
Minimum Humidity 19    
Precipitation  
Precipitation T in 0.04 in 0.90 in (1946)
Month to date precipitation T 0.27  
Year to date precipitation 9.36 25.13  
Snow  
Snow 0.00 in 0.10 in 3.60 in (1953)
Month to date snowfall 0.0 0.5  
Since 1 July snowfall T 1.6  
Since 1 September snowfall T 1.6  
Snow Depth 0.00 in    
Sea Level Pressure  
Sea Level Pressure 30.11 in    
Wind  
Wind Speed 16 mph (NW)    
Max Wind Speed 35 mph    
Max Gust Speed 44 mph    
Visibility 10 miles    
Events Rain    
T = Trace of Precipitation, MM = Missing Value Source: NWS Daily Summary

Daily Weather History Graph

Daily Weather History Graph

Search for Another Location

Airport or City:

Trip Planner

Search our weather history database for the weather conditions in past years. The results will help you decide how hot, cold, wet, or windy it might be!

Date:

Astronomy

Nov. 06, 2012 Rise Set
Actual Time 7:10 AM CST 5:22 PM CST
Civil Twilight 6:41 AM CST 5:51 PM CST
Nautical Twilight 6:08 AM CST 6:24 PM CST
Astronomical Twilight 5:36 AM CST 6:56 PM CST
Moon No Moon Rise 1:03 PM CST (11/6)
Length of Visible Light 11h 09m
Length of Day
10h 12m
Waning Gibbous, 53% of the Moon is Illuminated
Nov 6
Waning Gibbous
Nov 6
Last Quarter
Nov 13
New
Nov 20
First Quarter
Nov 28
Full

Hourly Weather History & Observations

Time (CST) Temp. Windchill Dew Point Humidity Pressure Visibility Wind Dir Wind Speed Gust Speed Precip Events Conditions
12:53 AM 39.0 °F 30.6 °F 34.0 °F 82% 30.04 in 10.0 mi SSW 15.0 mph - N/A   Clear
1:53 AM 41.0 °F 33.1 °F 34.0 °F 76% 30.05 in 10.0 mi WSW 15.0 mph - N/A   Mostly Cloudy
2:53 AM 39.9 °F 31.4 °F 36.0 °F 86% 30.03 in 10.0 mi SW 16.1 mph - 0.00 in Rain Light Rain
3:53 AM 42.1 °F 34.2 °F 35.1 °F 76% 30.01 in 10.0 mi WSW 16.1 mph - 0.00 in   Overcast
4:53 AM 43.0 °F 37.2 °F 36.0 °F 76% 30.03 in 10.0 mi West 10.4 mph - 0.00 in   Mostly Cloudy
5:53 AM 41.0 °F 35.8 °F 36.0 °F 82% 30.06 in 10.0 mi WNW 8.1 mph - N/A   Partly Cloudy
6:53 AM 45.0 °F 37.6 °F 36.0 °F 71% 30.09 in 10.0 mi NNW 17.3 mph - N/A   Clear
7:53 AM 45.0 °F 37.1 °F 33.1 °F 63% 30.12 in 10.0 mi NNW 19.6 mph - N/A   Clear
8:53 AM 48.0 °F - 32.0 °F 54% 30.16 in 10.0 mi NNW 21.9 mph 28.8 mph N/A   Clear
9:53 AM 51.1 °F - 28.0 °F 41% 30.15 in 10.0 mi NNW 23.0 mph - N/A   Clear
10:53 AM 54.0 °F - 25.0 °F 33% 30.14 in 10.0 mi NNW 24.2 mph 34.5 mph N/A   Clear
11:53 AM 57.0 °F - 24.1 °F 28% 30.12 in 10.0 mi NNW 24.2 mph 31.1 mph N/A   Clear
12:53 PM 57.9 °F - 23.0 °F 26% 30.10 in 10.0 mi NW 26.5 mph 29.9 mph N/A   Clear
1:53 PM 59.0 °F - 19.9 °F 22% 30.09 in 10.0 mi NNW 28.8 mph 39.1 mph N/A   Clear
2:53 PM 60.1 °F - 19.0 °F 20% 30.09 in 10.0 mi NNW 23.0 mph 32.2 mph N/A   Clear
3:53 PM 59.0 °F - 17.1 °F 20% 30.09 in 10.0 mi NNW 24.2 mph 32.2 mph N/A   Clear
4:53 PM 55.9 °F - 17.1 °F 22% 30.11 in 10.0 mi NNW 15.0 mph - N/A   Clear
5:53 PM 51.1 °F - 18.0 °F 27% 30.14 in 10.0 mi NNW 12.7 mph - N/A   Clear
6:53 PM 48.0 °F - 19.0 °F 32% 30.14 in 10.0 mi NNW 8.1 mph - N/A   Clear
7:53 PM 41.0 °F 36.4 °F 18.0 °F 40% 30.16 in 10.0 mi NW 6.9 mph - N/A   Clear
8:53 PM 37.9 °F 32.1 °F 19.0 °F 47% 30.17 in 10.0 mi WNW 8.1 mph - N/A   Clear
9:53 PM 37.9 °F 32.7 °F 19.9 °F 48% 30.17 in 10.0 mi WNW 6.9 mph - N/A   Clear
10:53 PM 36.0 °F 30.3 °F 21.0 °F 55% 30.16 in 10.0 mi WNW 6.9 mph - N/A   Clear
11:53 PM 33.1 °F 26.1 °F 21.0 °F 61% 30.16 in 10.0 mi West 8.1 mph - N/A   Clear